Location: Ipswich
(52.0579°N, 1.1528°E)
Time: 20:52:49
(UTC+01:00)

ISS - Pass Details

Date: 11 May 2026
Orbit: 414 x 424 km, 51.6° (Epoch: 15 May)

Event Time Altitude Azimuth Distance (km) Brightness Sun altitude
Rises 23:53:31 0° 273° (W) 2,354 0.3 -18.7°
Reaches altitude 10° 23:55:36 10° 272° (W) 1,492 -0.8 -18.8°
Maximum altitude 23:58:58 83° 184° (S) 424 -3.9 -18.9°
Enters shadow 23:59:21 66° 111° (ESE) 457 -3.8 -18.9°
